Flag for Spain Weather past 2 weeks in Pamplona, Spain

Now
54 °F

Broken clouds.


Feels Like: 50 °F
Forecast: 48 / 61 °F
Wind: 12 mph from North

Location: Pamplona / Noain

Current Time: Mar 30, 2015 at 8:26:50 PM

Latest Report: Mar 30, 2015 at 8:00 PM


Visibility: N/A

Pressure: 30.39 "Hg

Humidity: 77%

Dew point: 46 °F

Location of PamplonaLocation

Historic Weather in Pamplona — Graph

°F

Pamplona temperature yesterday

Maximum temperature yesterday: 66 °F (at 5:00 PM)
Minimum temperature yesterday: 50 °F (at 12:00 AM)
Average temperature yesterday: 57 °F

Past Weeks' High & Low Weather Summary

 TemperatureHumidityPressure
High66 °F (Mar 29, 5:00 PM)100% (Mar 19, 5:30 AM)30.42 "Hg (Mar 19, 5:30 AM)
Low34 °F (Mar 17, 5:30 AM)29% (Mar 17, 4:30 PM)29.74 "Hg (Mar 23, 5:00 PM)
Average47 °F80%30.07 "Hg
* Reported Mar 15 6:00 PM — Mar 30 7:00 PM, Pamplona, Weather by CustomWeather, © 2015

Note: Actual official high and low records may vary slightly from our data, if they occured in-between our weather recording intervals... More about our weather records

Advertising

Pamplona weather history for previous 24 hours

 ConditionsComfort  
Time TempWeatherWind HumidityBarometerVisibility
7:00 PM
Mon, Mar 30
54 °FBroken clouds.5 mph77%30.36 "HgN/A
6:30 PM54 °FPartly sunny.10 mph77%30.36 "HgN/A
6:00 PM54 °FPartly sunny.14 mph77%30.36 "HgN/A
5:30 PM55 °FPartly sunny.14 mph72%30.36 "HgN/A
5:00 PM55 °FPartly sunny.13 mph72%30.36 "HgN/A
4:30 PM55 °FBroken clouds.14 mph72%30.36 "HgN/A
4:00 PM55 °FBroken clouds.14 mph72%30.36 "HgN/A
3:30 PM55 °FPartly sunny.15 mph72%30.36 "HgN/A
3:00 PM55 °FPartly sunny.16 mph72%30.36 "HgN/A
2:30 PM55 °FPartly sunny.15 mph72%30.36 "HgN/A
2:00 PM55 °FPartly sunny.16 mph72%30.36 "HgN/A
1:30 PM55 °FPartly sunny.20 mph67%30.36 "HgN/A
1:00 PM55 °FPartly sunny.18 mph63%30.36 "HgN/A
12:30 PM55 °FPartly sunny.18 mph59%30.36 "HgN/A
12:00 PM57 °FPartly sunny.22 mph48%30.36 "HgN/A
11:30 AM57 °FBroken clouds.21 mph44%30.33 "HgN/A
11:00 AM57 °FBroken clouds.22 mph36%30.33 "HgN/A
10:30 AM57 °FPartly sunny.13 mph41%30.33 "HgN/A
10:00 AM57 °FScattered clouds.12 mph44%30.30 "HgN/A
9:30 AM57 °FPassing clouds.3 mph44%30.30 "HgN/A
9:00 AM50 °FSunny.2 mph76%30.30 "Hg10 mi
8:30 AM48 °FClear.1 mph82%30.27 "Hg10 mi
8:00 AM48 °FClear.2 mph82%30.27 "Hg10 mi
7:30 AM48 °FPassing clouds.No wind82%30.27 "HgN/A
7:00 AM48 °FPassing clouds.1 mph82%30.27 "HgN/A
6:30 AM48 °FPassing clouds.1 mph82%30.27 "HgN/A
6:00 AM48 °FPassing clouds.1 mph82%30.27 "HgN/A
5:30 AM46 °FPassing clouds.1 mph82%30.27 "HgN/A
12:00 AM52 °FPassing clouds.3 mph72%30.30 "HgN/A
11:30 PM
Sun, Mar 29
54 °FPassing clouds.No wind63%30.30 "HgN/A
11:00 PM54 °FPassing clouds.1 mph67%30.30 "HgN/A
10:30 PM54 °FPassing clouds.1 mph67%30.33 "HgN/A
10:00 PM55 °FPassing clouds.1 mph59%30.30 "HgN/A
9:30 PM57 °FPassing clouds.5 mph55%30.30 "HgN/A
9:00 PM55 °FPassing clouds.9 mph59%30.30 "HgN/A
8:30 PM57 °FPassing clouds.9 mph55%30.30 "HgN/A
8:00 PM59 °FPassing clouds.6 mph51%30.30 "HgN/A
Weather by CustomWeather, © 2015

See weather overviewHow to use our weather pages